Weather in Blizhnee

Russia / Republic of Crimea     45°03′24″N   35°19′59″E
temp.,
°C
wind,
m/s
gust,
m/s
humid.,
%
clouds,
%
prec.,
mm/h
press.,
hPa
HPBL,
m
28 february, sun
sun2800:00+5nnw7991100 1.1 1018530
03:00+5nnw61087100 1.4 1018660
06:00+4nnw61078100 0.0 1019884
09:00+3nnw7108681 0.1 1020809
12:00+4nnw588482 0.2 1021737
15:00+5nnw687786 0.5 1021880
18:00+4nw578499 0.4 1022695
21:00+3nw488588 0.5 1023537
1 march, mon
mon100:00+2nw468941 0.1 1024372
03:00+1wnw369128 0.1 1024223
06:00+1nw2484100 0.0 1025137
09:00+2nnw348295 0.0 1026310
12:00+3nnw237955 0.1 1027508
15:00+3nnw238378 0.3 1027437
18:00+2n2390100 0.1 1028282
21:00+1nnw2289100 0.2 1029145
2 march, tue
tue200:000nw338947 0.0 1030135
03:000nw358523 0.0 1030178
06:000nw35770 0.0 1030187
09:00+2nw35682 0.0 1030441
12:00+5wnw45540 0.0 10301074
15:00+6wsw46550 0.0 10281105
18:00+5w476724 0.0 1026723
21:00+3wnw247360 0.0 1026262
3 march, wed
wed300:00+3w5137732 0.0 1025510
03:00+4w5117948 0.0 1024486
06:00+3wnw5108966 0.0 1024383
09:00+5wnw498244 0.0 1025500
12:00+6nw687155 0.0 1025865
15:00+8nnw586666 0.1 10251188
18:00+7nnw586594 0.1 1026958
21:00+6n356694 0.1 1027426
4 march, thu
thu400:00+3nw237049 0.0 1028131
03:00+3nw226524 0.0 102850
06:00+2wnw11672 0.0 102734
09:00+5ssw126114 0.0 1028168
12:00+7s455712 0.0 10271095
15:00+8ssw676432 0.0 10251067
18:00+7s587830 0.0 1024680
21:00+5ssw478515 0.1 1023307